QPF
0.00 0.00 0.00 0.00 0.00 0.00 0.00 0.00 0.00 0.00 0.00 0.00 0.00 0.00 0.00 0.00 0.00 0.00 0.00 0.00 0.00 0.00 0.00 0.00 0.00 0.00 0.00 0.00 0.00 0.00 0.00 0.00 0.00 0.00 0.00 0.00 0.00 0.00
0.00 0.00 0.00 0.00 0.00 0.00 0.00 0.00 0.00 0.00 0.00 0.00 0.00 0.00 0.00 0.00 0.00 0.00 0.00 0.00 0.00 0.00 0.00 0.00 0.00 0.00 0.00 0.00 0.00 0.00 0.00 0.00 0.00 0.00 0.00 0.00 0.00 0.00
0.00 0.00 0.00 0.00 0.00 0.00 0.00 0.00 0.00 0.00 0.00 0.00 0.00 0.00 0.00 0.00 0.00 0.00 0.00 0.00 0.00 0.00 0.00 0.00 0.00 0.00 0.00 0.00 0.00 0.00 0.00 0.00 0.00 0.00 0.00 0.00 0.00 0.00
0.00 0.00 0.00 0.00 0.00 0.00 0.00 0.00 0.00 0.00 0.00 0.00 0.00 0.00 0.00 0.00 0.00 0.00 0.00 0.00 0.00 0.00 0.00 0.00 0.00 0.00 0.00 0.00 0.00 0.00 0.00 0.00 0.00 0.00 0.00 0.00 0.00 0.00
0.00 0.00 0.00 0.00 0.00 0.00 0.00 0.00 0.00 0.00 0.00 0.00 0.00 0.00 0.00 0.00 0.00 0.00 0.00 0.00 0.00 0.00 0.00 0.00 0.00 0.00 0.00 0.00 0.00 0.00 0.00 0.00 0.00 0.00 0.00 0.00 0.00 0.00
0.00 0.00 0.00 0.00 0.00 0.01 0.01 0.00 0.00 0.00 0.00 0.00 0.00 0.00 0.00 0.00 0.00 0.00 0.00 0.00 0.00 0.00 0.00 0.00 0.00 0.00 0.00 0.00 0.00 0.00 0.00 0.00 0.00 0.00 0.00 0.00 0.00 0.00
0.00 0.00 0.00 0.00 0.00 0.00 0.00 0.00 0.00 0.00 0.00 0.00 0.00 0.00 0.00 0.00 0.00 0.00 0.00 0.00 0.00 0.00 0.00 0.00 0.00 0.00 0.00 0.00 0.00 0.00 0.00 0.00 0.00 0.00 0.00 0.00 0.00 0.00
0.00 0.00 0.00 0.00 0.00 0.00 0.00 0.00 0.00 0.00 0.00 0.00 0.00 0.00 0.00 0.00 0.00 0.00 0.00 0.00 0.00 0.00 0.00 0.00 0.00 0.00 0.00 0.00 0.00 0.00 0.00 0.00 0.00 0.00 0.00 0.00 0.00 0.00
0.00 0.00 0.00 0.00 0.00 0.00 0.00 0.00 0.00 0.00 0.00 0.00 0.00 0.00 0.00 0.00 0.00 0.00 0.00 0.00 0.00 0.00 0.00 0.00 0.00 0.00 0.00 0.00 0.00 0.00 0.00 0.00 0.00 0.00 0.00 0.00 0.00 0.00
0.00 0.00 0.00 0.00 0.00 0.00 0.00 0.00 0.00 0.00 0.00 0.00 0.00 0.00 0.00 0.00 0.00 0.00 0.00 0.00 0.00 0.00 0.00 0.00 0.00 0.00 0.00 0.00 0.00 0.00 0.00 0.00 0.00 0.00 0.00 0.00 0.00 0.00
0.00 0.00 0.00 0.00 0.00 0.00 0.00 0.00 0.00 0.00 0.00 0.00 0.00 0.00 0.00 0.00 0.00 0.00 0.00 0.00 0.00 0.00 0.00 0.00 0.00 0.00 0.00 0.00 0.00 0.00 0.00 0.00 0.00 0.00 0.00 0.00 0.00 0.00
0.00 0.00 0.00 0.00 0.00 0.00 0.00 0.00 0.00 0.00 0.00 0.00 0.00 0.00 0.00 0.00 0.00 0.00 0.00 0.00 0.00 0.00 0.00 0.00 0.00 0.00 0.00 0.00 0.00 0.00 0.00 0.00 0.00 0.00 0.00 0.00 0.00 0.00
0.00 0.00 0.00 0.00 0.00 0.00 0.00 0.00 0.00 0.00 0.00 0.00 0.00 0.00 0.00 0.00 0.00 0.00 0.00 0.00 0.00 0.00 0.00 0.00 0.00 0.00 0.00 0.00 0.00 0.00 0.00 0.00 0.00 0.00 0.00 0.00 0.00 0.00
0.00 0.00 0.00 0.00 0.00 0.00 0.00 0.00 0.00 0.00 0.00 0.00 0.00 0.00 0.00 0.00 0.00 0.00 0.00 0.00 0.00 0.00 0.00 0.00 0.00 0.00 0.00 0.00 0.00 0.00 0.00 0.00 0.00 0.00 0.00 0.00 0.00 0.00
0.00 0.00 0.00 0.00 0.00 0.00 0.00 0.00 0.00 0.00 0.00 0.00 0.00 0.00 0.00 0.00 0.00 0.00 0.00 0.00 0.00 0.00 0.00 0.00 0.00 0.00 0.00 0.00 0.00 0.00 0.00 0.00 0.00 0.00 0.00 0.00 0.00 0.00
0.00 0.00 0.00 0.00 0.00 0.00 0.00 0.00 0.00 0.00 0.00 0.00 0.00 0.00 0.00 0.00 0.00 0.00 0.00 0.00 0.00 0.00 0.00 0.00 0.00 0.00 0.00 0.00 0.00 0.00 0.00 0.00 0.00 0.00 0.00 0.00 0.00 0.00
0.00 0.00 0.00 0.00 0.00 0.00 0.00 0.00 0.00 0.00 0.00 0.00 0.00 0.00 0.00 0.00 0.00 0.00 0.00 0.00 0.00 0.00 0.00 0.00 0.00 0.00 0.00 0.00 0.00 0.00 0.00 0.00 0.00 0.00 0.00 0.00 0.00 0.00
0.00 0.00 0.00 0.00 0.00 0.00 0.00 0.00 0.00 0.00 0.00 0.00 0.00 0.00 0.00 0.00 0.00 0.00 0.00 0.00 0.00 0.00 0.00 0.00 0.00 0.00 0.00 0.00 0.00 0.00 0.00 0.00 0.00 0.00 0.00 0.00 0.00 0.00
0.00 0.00 0.00 0.00 0.00 0.00 0.00 0.00 0.00 0.00 0.00 0.00 0.00 0.00 0.00 0.00 0.00 0.00 0.00 0.00 0.00 0.00 0.00 0.00 0.00 0.00 0.00 0.00 0.00 0.00 0.00 0.00 0.00 0.00 0.00 0.00 0.00 0.00
0.00 0.00 0.00 0.00 0.00 0.00 0.00 0.00 0.00 0.00 0.00 0.00 0.00 0.00 0.00 0.00 0.00 0.00 0.00 0.00 0.00 0.00 0.00 0.00 0.00 0.00 0.00 0.00 0.00 0.00 0.00 0.00 0.00 0.00 0.00 0.00 0.00 0.00
0.00 0.00 0.00 0.00 0.00 0.00 0.00 0.00 0.00 0.00 0.00 0.00 0.00 0.00 0.00 0.00 0.00 0.00 0.00 0.00 0.00 0.00 0.00 0.00 0.00 0.00 0.00 0.00 0.00 0.00 0.00 0.00 0.00 0.00 0.00 0.00 0.00 0.00
0.00 0.00 0.00 0.00 0.00 0.00 0.00 0.00 0.00 0.00 0.00 0.00 0.00 0.00 0.00 0.00 0.00 0.00 0.00 0.00 0.00 0.00 0.00 0.00 0.00 0.00 0.00 0.00 0.00 0.00 0.00 0.00 0.00 0.00 0.00 0.00 0.00 0.00
0.00 0.00 0.00 0.00 0.00 0.00 0.00 0.00 0.00 0.00 0.00 0.00 0.00 0.00 0.00 0.00 0.00 0.00 0.00 0.00 0.00 0.00 0.00 0.00 0.00 0.00 0.00 0.00 0.00 0.00 0.00 0.00 0.00 0.00 0.00 0.00 0.00 0.00
MSLP
1010.78 1010.54 1010.11 1009.95 1009.94 1009.96 1010.27 1009.99 1010.06 1011.00 1011.25 1011.85 1011.94 1012.09 1013.13 1013.78 1014.13 1015.07 1016.36 1017.27 1018.01 1019.38 1021.38 1022.71 1022.74 1022.84 1023.71 1023.45 1024.22 1025.32 1026.05 1026.46 1026.86 1026.89 1026.46 1026.82 1027.46 1027.65
1010.46 1010.48 1010.25 1009.82 1009.49 1009.31 1009.41 1009.27 1009.33 1009.27 1009.88 1010.30 1010.83 1011.35 1012.59 1013.56 1014.24 1015.03 1016.24 1017.05 1017.94 1019.20 1020.93 1022.36 1022.78 1023.07 1024.00 1024.64 1024.47 1025.12 1026.03 1026.69 1027.27 1027.36 1027.06 1026.96 1027.46 1027.86
1010.34 1010.27 1010.00 1009.79 1009.17 1008.68 1008.56 1008.58 1008.66 1008.69 1009.01 1009.57 1010.33 1011.18 1012.39 1013.12 1013.94 1014.91 1016.03 1016.92 1018.22 1019.41 1020.43 1021.67 1022.54 1023.26 1024.32 1024.86 1025.29 1025.07 1025.76 1026.73 1027.09 1027.44 1027.52 1027.41 1027.57 1027.95
1009.93 1009.77 1009.37 1009.39 1008.75 1008.30 1008.10 1007.80 1007.89 1008.11 1008.29 1008.82 1009.52 1010.48 1011.41 1012.40 1013.43 1014.76 1015.77 1016.60 1018.25 1019.47 1020.45 1021.08 1022.36 1023.33 1024.41 1025.03 1025.53 1025.55 1026.14 1026.65 1026.74 1027.38 1027.68 1027.80 1027.99 1028.06
1009.49 1009.36 1008.83 1008.85 1008.37 1007.93 1007.49 1007.02 1007.10 1007.41 1007.72 1008.11 1008.75 1009.72 1011.08 1012.23 1013.70 1014.94 1015.92 1016.86 1018.03 1019.43 1020.36 1021.17 1022.13 1023.17 1024.49 1025.25 1025.65 1025.93 1026.32 1026.90 1026.86 1027.44 1027.94 1027.91 1027.97 1028.09
1008.72 1008.20 1007.90 1007.92 1007.77 1007.36 1007.04 1006.53 1006.45 1006.72 1007.18 1007.69 1008.30 1009.36 1010.43 1012.06 1013.41 1014.53 1016.18 1016.98 1017.85 1019.42 1020.32 1021.98 1022.12 1022.98 1023.86 1025.31 1025.70 1025.83 1026.39 1026.71 1027.33 1027.61 1027.76 1027.85 1028.07 1028.01
1008.02 1007.61 1007.60 1007.50 1007.33 1006.94 1006.43 1006.14 1005.97 1006.07 1006.58 1007.22 1008.29 1009.36 1010.40 1011.80 1012.73 1014.11 1015.24 1016.70 1017.78 1018.89 1020.33 1021.59 1022.10 1022.67 1024.00 1025.03 1025.62 1025.83 1026.50 1026.80 1027.29 1027.37 1027.59 1027.73 1027.95 1028.17
1007.51 1007.18 1007.15 1007.00 1006.52 1006.23 1005.82 1005.59 1005.40 1005.79 1006.38 1007.30 1008.05 1008.66 1009.69 1010.73 1012.07 1013.27 1014.79 1016.37 1017.92 1018.71 1019.95 1021.27 1021.65 1022.67 1023.71 1024.82 1025.41 1025.74 1026.14 1026.75 1027.02 1027.16 1027.61 1027.63 1027.44 1028.04
1007.10 1006.83 1006.70 1006.69 1006.47 1006.30 1006.13 1005.76 1005.83 1006.00 1006.32 1007.01 1007.81 1008.41 1009.17 1009.85 1011.03 1012.89 1013.94 1015.09 1016.41 1017.89 1019.34 1020.97 1021.55 1022.34 1023.46 1024.31 1024.96 1025.37 1026.10 1026.43 1026.62 1026.95 1027.34 1027.53 1027.55 1027.68
1006.77 1006.60 1006.60 1006.73 1006.40 1006.54 1006.38 1006.71 1006.75 1006.99 1007.53 1008.00 1008.35 1008.80 1009.33 1009.97 1011.08 1012.17 1013.84 1015.55 1017.09 1018.79 1019.44 1020.29 1021.25 1021.99 1023.13 1023.69 1023.91 1024.76 1025.62 1025.99 1026.35 1026.56 1026.72 1027.27 1027.44 1027.62
1006.56 1006.50 1006.44 1006.58 1006.57 1006.61 1006.87 1007.25 1007.62 1008.03 1008.22 1008.58 1009.03 1009.67 1010.25 1010.82 1011.68 1012.68 1014.41 1015.48 1017.36 1018.88 1019.31 1019.99 1021.05 1021.85 1022.77 1023.41 1023.84 1024.56 1025.24 1025.67 1025.85 1026.04 1026.45 1027.12 1027.42 1027.57
1006.54 1006.49 1006.47 1006.40 1006.59 1006.91 1007.26 1007.43 1007.88 1008.41 1008.76 1009.35 1009.93 1010.38 1010.87 1011.55 1012.07 1012.87 1013.83 1015.23 1016.64 1018.42 1019.16 1019.91 1020.85 1021.55 1022.88 1023.42 1024.02 1024.80 1025.13 1025.43 1025.67 1025.92 1026.16 1026.69 1026.99 1027.25
1006.45 1006.51 1006.51 1006.50 1006.57 1007.33 1007.43 1007.63 1008.09 1008.50 1009.01 1009.60 1010.33 1010.90 1011.59 1012.33 1012.88 1013.36 1014.32 1014.83 1016.15 1016.99 1018.11 1019.45 1020.54 1021.25 1021.89 1023.05 1024.05 1024.36 1024.77 1025.33 1025.67 1025.74 1026.09 1026.07 1026.06 1026.42
1006.33 1006.48 1006.63 1006.76 1006.97 1007.41 1007.81 1008.24 1008.73 1009.10 1009.61 1010.23 1010.96 1011.84 1012.53 1013.20 1013.74 1014.18 1015.11 1015.62 1016.21 1017.01 1018.52 1019.16 1020.02 1020.68 1021.55 1022.59 1023.06 1023.46 1023.86 1024.66 1025.21 1025.27 1025.34 1025.39 1025.42 1025.44
1006.03 1006.19 1006.53 1007.13 1007.51 1007.83 1008.38 1008.80 1009.25 1009.74 1010.34 1010.95 1011.78 1012.69 1013.52 1014.23 1014.61 1015.24 1016.11 1017.05 1017.89 1018.60 1019.41 1019.86 1020.24 1020.86 1021.17 1022.34 1022.90 1023.41 1023.79 1023.76 1024.24 1025.04 1025.33 1025.31 1025.49 1025.27
1006.21 1006.54 1006.97 1007.35 1007.69 1008.55 1008.97 1009.36 1009.68 1010.23 1010.80 1011.57 1012.50 1013.57 1014.36 1014.97 1015.60 1016.17 1016.87 1017.73 1018.58 1019.86 1020.31 1020.33 1020.97 1021.16 1022.54 1022.65 1023.23 1023.70 1023.54 1024.26 1024.37 1024.68 1024.90 1024.91 1024.91 1024.84
1006.31 1006.87 1007.36 1007.90 1007.93 1008.86 1009.26 1009.74 1010.12 1010.74 1011.35 1012.25 1013.06 1013.86 1014.81 1015.51 1016.24 1016.70 1017.34 1018.03 1018.80 1020.00 1020.95 1021.51 1021.82 1022.03 1022.47 1023.07 1023.73 1023.94 1024.18 1024.22 1023.96 1024.08 1024.44 1024.71 1024.59 1024.70
1006.11 1006.64 1007.31 1007.75 1008.11 1008.69 1009.22 1009.96 1010.49 1011.10 1011.99 1012.68 1013.35 1014.05 1014.88 1015.64 1016.31 1016.91 1017.53 1018.27 1019.07 1020.00 1020.92 1021.60 1022.18 1022.57 1023.06 1023.31 1023.39 1023.64 1023.75 1023.94 1023.75 1023.76 1024.22 1024.54 1024.64 1024.55
1005.74 1006.44 1007.03 1007.61 1008.23 1008.74 1009.50 1010.12 1010.73 1011.47 1012.19 1012.86 1013.58 1014.32 1015.03 1015.79 1016.45 1017.11 1017.91 1018.52 1019.08 1019.65 1020.31 1021.05 1021.79 1022.23 1023.03 1023.29 1022.67 1022.67 1023.27 1023.45 1023.67 1023.94 1024.28 1024.51 1024.38 1024.27
1005.80 1006.39 1007.04 1007.68 1008.33 1008.83 1009.64 1010.42 1011.10 1011.87 1012.50 1013.07 1013.79 1014.51 1015.19 1015.89 1016.72 1017.40 1018.09 1018.67 1019.32 1019.82 1020.27 1020.78 1021.40 1021.54 1022.14 1022.82 1023.13 1023.25 1022.88 1023.42 1023.68 1024.15 1024.32 1024.19 1024.08 1023.79
1005.97 1006.51 1007.08 1007.71 1008.39 1009.10 1009.94 1010.73 1011.41 1012.10 1012.70 1013.45 1014.14 1014.83 1015.40 1016.10 1016.79 1017.43 1018.18 1018.90 1019.40 1019.80 1020.60 1020.79 1021.35 1021.17 1021.79 1022.27 1022.95 1023.17 1022.71 1022.54 1022.89 1023.45 1023.56 1023.72 1023.71 1023.56
1006.16 1006.73 1007.34 1008.01 1008.66 1009.31 1010.08 1010.87 1011.65 1012.34 1012.94 1013.65 1014.43 1014.92 1015.46 1016.05 1016.81 1017.42 1018.11 1018.89 1019.60 1020.05 1020.45 1020.71 1021.05 1021.18 1021.55 1022.10 1022.99 1022.99 1022.88 1022.82 1022.79 1022.79 1022.86 1023.05 1023.12 1022.36
1006.47 1006.98 1007.49 1008.14 1008.83 1009.49 1010.28 1011.07 1011.74 1012.45 1012.99 1013.67 1014.38 1015.11 1015.64 1016.30 1016.62 1017.32 1018.35 1019.06 1019.55 1019.89 1020.19 1020.60 1020.87 1021.20 1022.06 1022.51 1022.87 1023.06 1023.20 1023.32 1022.76 1022.59 1022.45 1022.08 1021.77 1021.32
Thickness
5523 5524 5528 5535 5536 5537 5538 5543 5548 5534 5537 5543 5548 5553 5546 5546 5548 5544 5536 5531 5526 5513 5494 5487 5489 5493 5489 5493 5489 5483 5480 5478 5478 5479 5483 5480 5473 5472
5492 5493 5499 5504 5509 5515 5517 5522 5525 5533 5527 5531 5534 5537 5531 5529 5528 5528 5519 5515 5509 5503 5488 5475 5473 5476 5470 5467 5472 5469 5464 5462 5459 5462 5464 5466 5462 5458
5463 5464 5470 5475 5483 5489 5496 5500 5503 5510 5511 5509 5512 5513 5512 5513 5513 5510 5503 5499 5492 5481 5479 5466 5461 5459 5451 5448 5449 5455 5452 5447 5447 5443 5445 5448 5447 5443
5447 5449 5454 5454 5462 5468 5473 5481 5485 5489 5494 5490 5491 5493 5496 5495 5496 5491 5488 5485 5473 5465 5460 5456 5449 5443 5435 5434 5431 5435 5435 5432 5432 5430 5429 5430 5429 5427
5434 5434 5440 5440 5445 5451 5458 5465 5471 5474 5477 5478 5476 5476 5472 5471 5467 5465 5468 5465 5457 5449 5444 5442 5436 5430 5421 5418 5417 5418 5418 5413 5416 5413 5411 5413 5413 5411
5426 5428 5430 5432 5435 5439 5444 5449 5453 5455 5461 5463 5461 5459 5456 5450 5446 5446 5443 5443 5439 5432 5428 5417 5420 5415 5409 5401 5400 5401 5395 5395 5395 5395 5395 5395 5393 5395
5418 5420 5418 5421 5424 5427 5430 5433 5437 5442 5441 5445 5439 5438 5433 5430 5432 5431 5429 5422 5420 5416 5409 5403 5403 5400 5390 5385 5383 5381 5379 5379 5377 5379 5378 5377 5376 5375
5412 5413 5411 5413 5417 5419 5421 5422 5426 5430 5429 5425 5422 5424 5424 5423 5417 5415 5411 5406 5402 5398 5391 5384 5386 5381 5376 5370 5367 5366 5366 5362 5362 5363 5360 5362 5366 5362
5405 5406 5406 5404 5407 5407 5406 5409 5409 5409 5410 5411 5409 5412 5409 5412 5409 5403 5400 5395 5389 5382 5374 5367 5368 5367 5361 5356 5355 5354 5351 5349 5350 5351 5349 5348 5349 5349
5397 5399 5397 5395 5399 5398 5397 5394 5392 5388 5383 5382 5384 5388 5391 5389 5389 5385 5377 5369 5364 5357 5358 5358 5354 5353 5347 5348 5349 5345 5339 5339 5340 5341 5342 5338 5335 5335
5388 5390 5391 5390 5390 5389 5387 5381 5378 5373 5369 5367 5366 5365 5368 5367 5366 5366 5359 5358 5351 5345 5347 5347 5343 5341 5339 5338 5338 5334 5331 5332 5333 5333 5331 5324 5323 5324
5376 5380 5381 5383 5383 5380 5378 5377 5372 5365 5360 5354 5352 5354 5356 5356 5358 5358 5357 5352 5348 5337 5338 5338 5334 5331 5326 5327 5326 5321 5321 5320 5320 5320 5320 5316 5314 5312
5365 5369 5372 5375 5376 5370 5371 5371 5368 5364 5359 5352 5347 5347 5346 5345 5347 5349 5347 5348 5342 5342 5338 5332 5329 5326 5327 5321 5315 5315 5313 5310 5308 5309 5306 5308 5307 5302
5355 5359 5363 5365 5367 5365 5362 5361 5358 5357 5354 5350 5346 5341 5339 5338 5339 5340 5336 5337 5338 5336 5329 5330 5328 5325 5320 5314 5313 5310 5307 5302 5299 5300 5299 5297 5294 5293
5348 5352 5357 5356 5354 5355 5353 5352 5351 5349 5346 5343 5339 5335 5331 5329 5330 5330 5328 5324 5321 5321 5319 5318 5317 5313 5313 5304 5302 5300 5298 5299 5296 5288 5285 5284 5282 5282
5339 5342 5346 5346 5347 5343 5344 5343 5344 5342 5340 5337 5332 5326 5323 5321 5319 5319 5317 5315 5312 5305 5304 5305 5301 5301 5291 5292 5289 5286 5287 5280 5280 5278 5276 5274 5271 5269
5330 5331 5334 5333 5338 5336 5337 5336 5337 5334 5332 5327 5322 5319 5314 5311 5309 5310 5307 5305 5302 5295 5290 5288 5286 5285 5283 5278 5273 5272 5270 5268 5270 5268 5265 5261 5261 5256
5325 5327 5327 5329 5332 5332 5332 5329 5328 5327 5322 5319 5317 5315 5310 5307 5305 5303 5300 5296 5294 5287 5280 5276 5272 5269 5267 5266 5266 5264 5261 5258 5260 5258 5254 5248 5244 5240
5322 5323 5324 5324 5325 5325 5323 5322 5321 5318 5315 5313 5310 5308 5305 5303 5299 5295 5290 5285 5281 5279 5277 5271 5268 5264 5258 5251 5261 5260 5253 5250 5246 5241 5235 5229 5228 5225
5317 5317 5318 5319 5320 5319 5316 5314 5312 5309 5308 5307 5304 5300 5297 5293 5288 5283 5278 5273 5270 5270 5269 5268 5264 5261 5256 5249 5244 5244 5244 5236 5230 5223 5218 5215 5211 5206
5310 5312 5313 5314 5313 5311 5308 5306 5304 5302 5300 5297 5294 5291 5288 5284 5279 5276 5272 5268 5266 5265 5261 5258 5254 5256 5251 5246 5234 5229 5229 5225 5219 5210 5202 5196 5189 5184
5305 5306 5307 5307 5306 5305 5303 5300 5298 5295 5293 5289 5285 5284 5280 5277 5272 5271 5270 5262 5256 5253 5250 5249 5246 5245 5239 5232 5221 5216 5212 5206 5198 5191 5183 5173 5164 5163
5299 5300 5301 5301 5300 5299 5296 5293 5291 5288 5286 5283 5279 5274 5271 5270 5269 5265 5260 5254 5251 5247 5246 5240 5237 5231 5222 5215 5205 5195 5190 5182 5178 5172 5167 5157 5150 5145